[[[{"header":{"parameterUnit":"kt","parameterCategory":2,"dx":1,"dy":1,"la1":30.253999710083008,"la2":30.299108505249023,"lo1":-89.0895004272461,"lo2":-89.04439544677734,"nx":28,"ny":28,"refTime":"2022-10-07T21:00:00:Z","depth":0,"parameterNumber":1,"parameterNumberName":"U-component_of_WINDS"},"data":[-5.8946,-5.912,-5.9094,-5.928,-5.9287,-5.941,-5.9445,-5.9488,-5.9515,-5.9657,-5.9734,-5.9724,-5.974,-5.9825,-5.9907,-5.99,-5.9939,-6.0019,-5.9999,-5.966,-5.9611,-5.9565,-5.9523,-6.0027,-6.0028,-6.0356,-6.0359,-6.0361,-5.8699,-5.8709,-5.8799,-5.8869,-5.8946,-5.8852,-5.8899,-5.897,-5.9082,-5.9116,-5.919,-5.9313,-5.9407,-5.9394,-5.9479,-5.956,-5.9521,-5.9585,-5.9581,-5.9586,-5.9221,-5.9177,-5.9615,-5.9615,-5.9615,-5.9615,-5.9615,-5.9615,-5.8243,-5.8349,-5.8375,-5.8473,-5.85,-5.8547,-5.8643,-5.8628,-5.8716,-5.8802,-5.8751,-5.8877,-5.8906,-5.8995,-5.9017,-5.9115,-5.9039,-5.9101,-5.9117,-5.9135,-5.916,-5.8695,-5.9127,-5.9126,-5.9124,-5.9123,-5.9122,0,-5.7903,-5.7873,-5.7958,-5.8035,-5.8105,-5.8162,-5.8209,-5.8267,-5.8194,-5.8269,-5.8376,-5.8433,-5.8545,-5.8644,-5.8716,-5.8727,-5.8639,-5.8625,-5.8669,-5.8698,-5.8715,-5.8712,-5.8122,-5.8614,-5.861,-5.8606,-5.8604,-5.8602,-5.7445,-5.757,-5.7583,-5.7647,-5.7666,-5.7769,-5.7824,-5.775,-5.7812,-5.7859,-5.7955,-5.8051,-5.8125,-5.83,-5.8282,-5.8366,-5.8325,-5.8516,-5.8337,-5.8359,-5.8332,-5.8328,-5.8341,-5.8555,-5.8561,-5.8566,-5.857,0,-5.719,-5.7144,-5.7329,-5.733,-5.7334,-5.7469,-5.7469,-5.757,-5.7544,-5.7681,-5.7708,-5.7668,-5.7774,-5.7724,-5.7835,-5.7806,-5.8029,-5.7984,-5.8019,-5.8009,-5.8178,-5.8164,-5.8729,-5.88,-5.8272,-5.8277,-5.8281,0,-5.6783,-5.695,-5.6872,-5.6982,-5.7165,-5.7085,-5.7268,-5.7264,-5.7286,-5.7393,-5.7282,-5.7385,-5.7303,-5.7399,-5.7356,-5.7528,-5.7548,-5.7537,-5.7525,-5.755,-5.7553,-5.7586,-5.7564,-5.7487,-5.7484,-5.7481,-5.7479,0,-5.6393,-5.6545,-5.6722,-5.675,-5.6767,-5.6852,-5.6864,-5.6888,-5.6943,-5.7006,-5.7041,-5.712,-5.7165,-5.7227,-5.7173,-5.7053,-5.7381,-5.7205,-5.737,-5.7373,-5.745,-5.7447,-5.7954,-5.7475,-5.7475,-5.7474,-5.7473,0,-5.6059,-5.6124,-5.6386,-5.6398,-5.6442,-5.6558,-5.663,-5.6718,-5.6752,-5.6732,-5.6781,-5.6702,-5.6846,-5.6676,-5.6875,-5.6735,-5.6785,-5.6787,-5.6798,-5.6812,-5.6625,-5.6923,-5.7408,-5.7459,-5.6819,-5.6814,-5.6809,0,-5.5626,-5.5878,-5.5812,-5.6063,-5.6173,-5.6042,-5.6169,-5.6202,-5.6186,-5.6276,-5.6257,-5.6362,-5.6224,-5.625,-5.6354,-5.634,-5.6521,-5.6313,-5.6449,-5.6455,-5.6449,-5.6893,-5.698,-5.7306,-5.6738,-5.6746,-5.6751,0,-5.5285,-5.5304,-5.5354,-5.5383,-5.5413,-5.5504,-5.565,-5.5735,-5.5799,-5.5847,-5.5969,-5.6112,-5.6015,-5.6059,-5.6004,-5.6115,-5.6396,-5.5996,-5.5996,-5.6073,-5.6697,-5.6779,-5.6834,-5.6334,-5.6343,-5.6349,-5.6695,0,-5.4797,-5.4916,-5.5047,-5.5113,-5.5174,-5.5328,-5.5274,-5.5345,-5.5285,-5.5265,-5.5442,-5.5456,-5.5544,-5.5591,-5.5534,-5.5804,-5.5752,-5.5647,-5.5482,-5.5772,-5.5885,-5.5931,-5.5318,-5.5312,-5.5308,-5.5304,0,0,-5.4397,-5.4567,-5.4489,-5.4628,-5.4676,-5.4538,-5.4707,-5.4737,-5.4802,-5.4839,-5.4744,-5.4951,-5.4967,-5.5188,-5.5274,-5.5308,-5.5353,-5.5254,-5.5633,-5.567,-5.5704,-5.5826,-5.5874,-5.5297,-5.5295,-5.5294,-5.5292,0,-5.4209,-5.4226,-5.4393,-5.442,-5.4458,-5.4428,-5.4468,-5.4482,-5.4477,-5.4648,-5.4534,-5.4633,-5.48,-5.4833,-5.4872,-5.5224,-5.5134,-5.5254,-5.5463,-5.5591,-5.5634,-5.5671,-5.58,-5.5846,-5.5281,-5.5282,-5.5283,0,-5.3866,-5.3876,-5.395,-5.405,-5.4074,-5.419,-5.4001,-5.4131,-5.4217,-5.4061,-5.4234,-5.4235,-5.4274,-5.4488,-5.4582,-5.45,-5.4939,-5.479,-5.4816,-5.4827,-5.4948,-5.4999,-5.5045,-5.4443,-5.444,-5.4438,0,0,-5.3711,-5.3821,-5.3808,-5.4006,-5.4028,-5.3986,-5.4042,-5.3988,-5.4025,-5.4041,-5.4041,-5.4082,-5.4177,-5.4243,-5.433,-5.4572,-5.4576,-5.4689,-5.4728,-5.4761,-5.479,-5.4919,-5.497,-5.4428,-5.4428,-5.4427,0,0,-5.3637,-5.363,-5.3563,-5.3785,-5.3824,-5.3826,-5.3949,-5.3867,-5.394,-5.3917,-5.3833,-5.384,-5.4039,-5.4045,-5.3915,-5.4271,-5.4107,-5.4137,-5.4261,-5.431,-5.4349,-5.4345,-5.3726,0,0,0,0,0,-5.3418,-5.363,-5.3569,-5.3599,-5.3725,-5.3859,-5.3875,-5.381,-5.3696,-5.3795,-5.3782,-5.368,-5.3957,-5.384,-5.3871,-5.4019,-5.4296,-5.432,-5.4342,-5.4557,-5.4609,-5.4653,0,0,0,0,0,0,-5.3428,-5.3465,-5.3563,-5.3575,-5.3603,-5.3851,-5.3643,-5.3631,-5.3683,-5.3662,-5.3686,-5.3681,-5.3629,-5.382,-5.3849,-5.399,-5.3716,-5.4306,-5.4325,-5.4343,-5.4575,-5.4617,-5.4654,0,0,0,0,0,-5.3437,-5.3466,-5.3686,-5.3571,-5.3596,-5.356,-5.3635,-5.3623,-5.3662,-5.3643,-5.3634,-5.3609,-5.3635,-5.3654,-5.3837,-5.3979,-5.3696,-5.3707,-5.4318,-5.4334,-5.4348,-5.4595,0,0,0,0,0,0,-5.3443,-5.3456,-5.3689,-5.3694,-5.3486,-5.3545,-5.3552,-5.3617,-5.3638,-5.3633,-5.356,-5.3543,-5.3642,-5.3655,-5.3671,-5.3979,-5.3679,-5.3691,-5.3698,-5.433,-5.4342,-5.4353,0,0,0,0,0,0,-5.344,-5.3462,-5.3691,-5.3587,-5.358,-5.3531,-5.3538,-5.3682,-5.3641,-5.3554,-5.354,-5.3552,-5.3618,-5.3658,-5.3669,-5.3898,-5.3667,-5.3677,-5.3685,-5.369,-5.434,-5.435,0,0,0,0,0,0,-5.3448,-5.3466,-5.3586,-5.358,-5.3573,-5.3623,-5.3658,-5.3792,-5.3551,-5.3556,-5.3527,-5.3517,-5.3623,-5.3633,-5.3669,-5.3893,-5.3897,-5.3667,-5.3674,-5.368,-5.3683,0,0,0,0,0,0,0,-5.3454,-5.3347,-5.366,-5.3574,-5.3567,-5.3739,-5.3741,-5.3742,-5.3548,-5.3539,-5.353,-5.3521,-5.3606,-5.3618,-5.3629,-5.3889,0,0,-5.3666,-5.3671,0,0,0,0,0,0,0,0,-5.3338,-5.3345,-5.366,-5.3661,-5.3662,-5.374,-5.3741,-5.3742,-5.3547,-5.3539,-5.3532,-5.3525,-5.3609,-5.3618,-5.3628,0,0,0,0,0,0,0,0,0,0,0,0,0,0,0,-5.366,-5.3661,0,-5.374,-5.3741,-5.3742,-5.3546,-5.354,-5.3533,-5.3528,-5.3612,-5.3619,-5.3627,0,0,0,0,0,0,0,0,0,0,0,0,0,0,0,0,0,0,0,0,0,0,0,0,0,0,0,0,0,0,0,0,0,0,0,0,0,0,0,0,0,0,0,0,0,0,0,0,0,0,0,0,0,0,0,0,0,0,0,0,0,0,0,0,0,0,0,0,0]}],[{"header":{"parameterUnit":"kt","parameterCategory":2,"dx":1,"dy":1,"la1":30.253999710083008,"la2":30.299108505249023,"lo1":-89.0895004272461,"lo2":-89.04439544677734,"nx":28,"ny":28,"refTime":"2022-10-07T21:00:00:Z","depth":0,"parameterNumber":2,"parameterNumberName":"V-component_of_WINDS"},"data":[-11.8264,-11.8449,-11.843,-11.863,-11.8645,-11.8777,-11.8817,-11.8866,-11.8899,-11.905,-11.9133,-11.9128,-11.9149,-11.9239,-11.9324,-11.9319,-11.9357,-11.9437,-11.9417,-11.9079,-11.903,-11.8984,-11.894,-11.9446,-11.9447,-11.977,-11.9773,-11.9775,-11.8018,-11.8037,-11.8138,-11.8221,-11.8306,-11.8217,-11.8274,-11.835,-11.8469,-11.851,-11.859,-11.872,-11.8818,-11.8811,-11.89,-11.8982,-11.8943,-11.9007,-11.9001,-11.9005,-11.8643,-11.8597,-11.9038,-11.9038,-11.9037,-11.9037,-11.9037,-11.9037,-11.7564,-11.7676,-11.7715,-11.7823,-11.7859,-11.7914,-11.8015,-11.8008,-11.8103,-11.8198,-11.8152,-11.8284,-11.8318,-11.8414,-11.8439,-11.8539,-11.8462,-11.8525,-11.854,-11.8557,-11.8579,-11.8115,-11.8553,-11.8551,-11.855,-11.8549,-11.8548,0,-11.7225,-11.7201,-11.7296,-11.7385,-11.7463,-11.7529,-11.7585,-11.7646,-11.7582,-11.7663,-11.7777,-11.7839,-11.7958,-11.806,-11.8138,-11.815,-11.8061,-11.805,-11.8092,-11.8118,-11.813,-11.8125,-11.7536,-11.8037,-11.8032,-11.8029,-11.8027,-11.8025,-11.6764,-11.6898,-11.6928,-11.6997,-11.7023,-11.7135,-11.7196,-11.713,-11.7198,-11.7254,-11.7354,-11.7456,-11.7534,-11.7717,-11.7702,-11.7789,-11.7746,-11.7941,-11.7759,-11.7778,-11.7749,-11.7742,-11.7754,-11.7977,-11.7983,-11.7988,-11.7992,0,-11.6507,-11.6473,-11.6671,-11.6686,-11.6694,-11.6835,-11.6846,-11.6952,-11.6932,-11.7075,-11.7104,-11.7071,-11.7182,-11.7135,-11.7251,-11.7223,-11.7449,-11.7405,-11.7437,-11.7425,-11.7594,-11.7579,-11.815,-11.822,-11.7696,-11.7701,-11.7705,0,-11.61,-11.6277,-11.6214,-11.6331,-11.6523,-11.6453,-11.6644,-11.6645,-11.6674,-11.6786,-11.6679,-11.6786,-11.6708,-11.6807,-11.6765,-11.6941,-11.6963,-11.6951,-11.6938,-11.6961,-11.6963,-11.6994,-11.6969,-11.6903,-11.69,-11.6898,-11.6895,0,-11.5701,-11.5873,-11.6063,-11.6096,-11.6129,-11.6219,-11.6236,-11.6267,-11.6327,-11.6397,-11.6434,-11.652,-11.6567,-11.6633,-11.6579,-11.6457,-11.6793,-11.6614,-11.678,-11.6782,-11.6857,-11.6853,-11.7371,-11.6892,-11.6891,-11.689,-11.6889,0,-11.5366,-11.5443,-11.5723,-11.5747,-11.5795,-11.5919,-11.5999,-11.6095,-11.6135,-11.6118,-11.6171,-11.6093,-11.6244,-11.607,-11.6276,-11.6133,-11.6185,-11.6187,-11.6198,-11.6208,-11.6015,-11.6313,-11.6812,-11.6862,-11.6217,-11.6212,-11.6207,0,-11.4918,-11.5192,-11.5133,-11.54,-11.552,-11.5392,-11.5527,-11.5567,-11.5555,-11.5651,-11.5635,-11.5746,-11.5606,-11.5634,-11.5742,-11.5729,-11.5915,-11.5703,-11.5838,-11.5844,-11.5832,-11.6291,-11.6377,-11.6708,-11.6135,-11.6142,-11.6148,0,-11.4566,-11.4606,-11.4658,-11.4692,-11.4736,-11.4835,-11.4991,-11.5086,-11.5154,-11.521,-11.5337,-11.549,-11.5391,-11.5438,-11.5382,-11.5498,-11.5787,-11.5375,-11.5374,-11.545,-11.6094,-11.6175,-11.6231,-11.5723,-11.5732,-11.5739,-11.609,0,-11.4068,-11.42,-11.4339,-11.4419,-11.4488,-11.4653,-11.4605,-11.4683,-11.4623,-11.4606,-11.4792,-11.4811,-11.4905,-11.4955,-11.4897,-11.5177,-11.5122,-11.5015,-11.4841,-11.5143,-11.5257,-11.5304,-11.4675,-11.467,-11.4665,-11.4662,0,0,-11.3647,-11.3835,-11.3766,-11.3916,-11.397,-11.3834,-11.4014,-11.4049,-11.4126,-11.4164,-11.4068,-11.4287,-11.4306,-11.4537,-11.4627,-11.4665,-11.471,-11.4606,-11.5,-11.5038,-11.5073,-11.5196,-11.5246,-11.4653,-11.4652,-11.465,-11.4649,0,-11.3455,-11.3483,-11.3664,-11.3698,-11.3747,-11.3721,-11.3764,-11.3787,-11.3784,-11.3967,-11.385,-11.3955,-11.4133,-11.4168,-11.4209,-11.4578,-11.4482,-11.461,-11.4825,-11.4956,-11.5,-11.5039,-11.5169,-11.5217,-11.4638,-11.4638,-11.4639,0,-11.3099,-11.3119,-11.3201,-11.3319,-11.3349,-11.3474,-11.3282,-11.3423,-11.3514,-11.3354,-11.3537,-11.3541,-11.3584,-11.3809,-11.3907,-11.3821,-11.4277,-11.4124,-11.4152,-11.4161,-11.4285,-11.4338,-11.4386,-11.3763,-11.376,-11.3758,0,0,-11.2939,-11.3062,-11.306,-11.3274,-11.3301,-11.3264,-11.3325,-11.3273,-11.3316,-11.3334,-11.3337,-11.3381,-11.3482,-11.3551,-11.3644,-11.3898,-11.39,-11.4019,-11.406,-11.4094,-11.4122,-11.4255,-11.4308,-11.3747,-11.3747,-11.3747,0,0,-11.2862,-11.287,-11.2803,-11.3045,-11.3092,-11.3102,-11.3233,-11.315,-11.323,-11.3205,-11.3119,-11.3127,-11.3336,-11.3344,-11.3207,-11.358,-11.341,-11.3441,-11.3568,-11.3619,-11.366,-11.3653,-11.301,0,0,0,0,0,-11.2641,-11.2868,-11.2808,-11.2842,-11.2989,-11.3136,-11.3154,-11.3091,-11.2971,-11.3076,-11.3065,-11.2958,-11.3252,-11.3129,-11.3162,-11.3315,-11.3609,-11.3634,-11.3657,-11.388,-11.3934,-11.398,0,0,0,0,0,0,-11.2654,-11.2695,-11.2802,-11.2823,-11.2855,-11.3127,-11.2912,-11.29,-11.2959,-11.2936,-11.2964,-11.2959,-11.2906,-11.3108,-11.3138,-11.3285,-11.2999,-11.3619,-11.364,-11.3658,-11.3898,-11.3943,-11.3981,0,0,0,0,0,-11.2663,-11.2696,-11.295,-11.2819,-11.2848,-11.2818,-11.2902,-11.2891,-11.2935,-11.2918,-11.2909,-11.2882,-11.2912,-11.2933,-11.3125,-11.3273,-11.2978,-11.2989,-11.3633,-11.3649,-11.3663,-11.392,0,0,0,0,0,0,-11.2671,-11.2686,-11.2954,-11.296,-11.2729,-11.2801,-11.281,-11.2884,-11.2911,-11.2906,-11.283,-11.2812,-11.2919,-11.2934,-11.2951,-11.3273,-11.296,-11.2972,-11.2979,-11.3645,-11.3658,-11.3669,0,0,0,0,0,0,-11.2668,-11.2693,-11.2957,-11.2847,-11.2839,-11.2786,-11.2794,-11.2948,-11.2913,-11.2821,-11.2807,-11.2822,-11.2892,-11.2936,-11.2948,-11.3191,-11.2946,-11.2958,-11.2966,-11.2971,-11.3655,-11.3665,0,0,0,0,0,0,-11.2677,-11.2698,-11.2844,-11.2839,-11.2832,-11.2895,-11.292,-11.3073,-11.2822,-11.2822,-11.2798,-11.2786,-11.2898,-11.2908,-11.2948,-11.3185,-11.3189,-11.2947,-11.2955,-11.296,-11.2964,0,0,0,0,0,0,0,-11.2684,-11.2559,-11.2919,-11.2833,-11.2826,-11.3016,-11.3017,-11.3019,-11.282,-11.281,-11.28,-11.2791,-11.2882,-11.2894,-11.2907,-11.3181,0,0,-11.2946,-11.2951,0,0,0,0,0,0,0,0,-11.2549,-11.2557,-11.2919,-11.292,-11.2922,-11.3016,-11.3017,-11.3019,-11.2818,-11.281,-11.2802,-11.2795,-11.2885,-11.2895,-11.2905,0,0,0,0,0,0,0,0,0,0,0,0,0,0,0,-11.2919,-11.292,0,-11.3016,-11.3017,-11.3018,-11.2817,-11.281,-11.2804,-11.2798,-11.2888,-11.2896,-11.2905,0,0,0,0,0,0,0,0,0,0,0,0,0,0,0,0,0,0,0,0,0,0,0,0,0,0,0,0,0,0,0,0,0,0,0,0,0,0,0,0,0,0,0,0,0,0,0,0,0,0,0,0,0,0,0,0,0,0,0,0,0,0,0,0,0,0,0,0,0]}]]]